CES5719 ZPPP-ZBAA

Flight info

Callsign CES5719
Flight time 2h 48m
Altitude 37100
Route K0913S1130 NODIB5Q NODIB W137 LPS A581 AGTIS W3 DS W4 VADMO W56 LEBUN/K0891S1160 W56 NUDKU/K0895S1130 W56 DUGEB DUGEB6J
Aircraft B77W/H-SDE1E2E3FGHIJ2J3J4J5M1RWXY/LB1D1

Departure

Time 2026-05-08 11:30
Airport Kunming Changshui International Airport (ZPPP)

Arrival

Time 2026-05-08 14:18
Airport Beijing Capital International Airport (ZBAA)
Time Latitude Longitude Altitude Speed Heading
2026-05-08 11:05 25.10370 102.93499 6900 ft 0 kts 257°
2026-05-08 11:18 25.10370 102.93502 6900 ft 3 kts 257°
2026-05-08 11:18 25.10376 102.93530 6901 ft 4 kts 257°
2026-05-08 11:18 25.10381 102.93554 6900 ft 2 kts 257°
2026-05-08 11:18 25.10388 102.93581 6900 ft 4 kts 232°
2026-05-08 11:19 25.10408 102.93595 6900 ft 4 kts 189°
2026-05-08 11:19 25.10431 102.93591 6900 ft 4 kts 143°
2026-05-08 11:19 25.10450 102.93570 6901 ft 4 kts 128°
2026-05-08 11:19 25.10454 102.93565 6901 ft 0 kts 128°
2026-05-08 11:22 25.10453 102.93567 6901 ft 2 kts 128°
2026-05-08 11:22 25.10419 102.93614 6900 ft 14 kts 128°
2026-05-08 11:22 25.10343 102.93721 6899 ft 19 kts 128°
2026-05-08 11:22 25.10262 102.93835 6899 ft 18 kts 128°
2026-05-08 11:23 25.10193 102.93896 6899 ft 9 kts 187°
2026-05-08 11:23 25.10145 102.93853 6898 ft 9 kts 219°
2026-05-08 11:23 25.10097 102.93811 6898 ft 9 kts 218°
2026-05-08 11:23 25.10048 102.93769 6899 ft 9 kts 218°
2026-05-08 11:24 25.10000 102.93727 6899 ft 9 kts 218°
2026-05-08 11:24 25.09951 102.93684 6899 ft 9 kts 218°
2026-05-08 11:24 25.09901 102.93641 6899 ft 10 kts 218°
2026-05-08 11:24 25.09840 102.93588 6899 ft 12 kts 218°
2026-05-08 11:25 25.09766 102.93524 6900 ft 15 kts 218°
2026-05-08 11:25 25.09680 102.93449 6900 ft 17 kts 218°
2026-05-08 11:25 25.09583 102.93365 6901 ft 19 kts 218°
2026-05-08 11:25 25.09476 102.93272 6902 ft 21 kts 218°
2026-05-08 11:26 25.09358 102.93169 6901 ft 22 kts 218°
2026-05-08 11:26 25.09236 102.93062 6902 ft 22 kts 218°
2026-05-08 11:26 25.09128 102.92968 6901 ft 15 kts 218°
2026-05-08 11:26 25.09069 102.92959 6902 ft 7 kts 136°
2026-05-08 11:27 25.09067 102.92962 6901 ft 0 kts 129°
2026-05-08 11:27 25.09062 102.92969 6901 ft 5 kts 129°
2026-05-08 11:27 25.09016 102.93030 6900 ft 13 kts 128°
2026-05-08 11:28 25.09000 102.93096 6899 ft 8 kts 59°
2026-05-08 11:28 25.09021 102.93115 6899 ft 0 kts 37°
2026-05-08 11:28 25.09030 102.93122 6899 ft 9 kts 37°
2026-05-08 11:28 25.09237 102.93302 6900 ft 70 kts 38°
2026-05-08 11:29 25.09777 102.93772 6897 ft 127 kts 38°
2026-05-08 11:29 25.10600 102.94488 6896 ft 172 kts 38°
2026-05-08 11:29 25.11616 102.95400 6984 ft 198 kts 39°
2026-05-08 11:29 25.12724 102.96364 7335 ft 209 kts 37°
2026-05-08 11:30 25.13884 102.97377 7883 ft 215 kts 39°
2026-05-08 11:30 25.15087 102.98418 8334 ft 221 kts 39°
2026-05-08 11:30 25.16311 102.99478 8796 ft 228 kts 40°
2026-05-08 11:30 25.17607 103.00606 8968 ft 253 kts 39°
2026-05-08 11:31 25.19054 103.01867 9168 ft 276 kts 39°
2026-05-08 11:31 25.20630 103.03241 9452 ft 297 kts 39°
2026-05-08 11:31 25.22170 103.04767 10104 ft 299 kts 52°
2026-05-08 11:31 25.23403 103.06698 10457 ft 319 kts 59°
2026-05-08 11:32 25.24585 103.08896 10613 ft 346 kts 60°
2026-05-08 11:32 25.25830 103.11284 10806 ft 371 kts 60°
2026-05-08 11:32 25.27171 103.13823 11099 ft 389 kts 59°
2026-05-08 11:32 25.28574 103.16425 11776 ft 399 kts 58°
2026-05-08 11:33 25.30028 103.19075 12530 ft 407 kts 58°
2026-05-08 11:33 25.31524 103.21771 13391 ft 414 kts 57°
2026-05-08 11:33 25.33046 103.24495 14196 ft 420 kts 57°
2026-05-08 11:33 25.34598 103.27263 14928 ft 427 kts 57°
2026-05-08 11:34 25.36187 103.30094 15574 ft 436 kts 56°
2026-05-08 11:34 25.37794 103.32961 16325 ft 441 kts 56°
2026-05-08 11:34 25.39422 103.35865 17044 ft 448 kts 56°
2026-05-08 11:34 25.41073 103.38815 17720 ft 455 kts 56°
2026-05-08 11:35 25.42751 103.41815 18402 ft 461 kts 56°
2026-05-08 11:35 25.44451 103.44858 18972 ft 468 kts 56°
2026-05-08 11:35 25.46154 103.47909 19570 ft 474 kts 56°
2026-05-08 11:35 25.47891 103.51024 20196 ft 478 kts 56°
2026-05-08 11:36 25.49646 103.54174 20832 ft 481 kts 56°
2026-05-08 11:36 25.51412 103.57345 21434 ft 486 kts 56°
2026-05-08 11:36 25.53200 103.60553 21983 ft 492 kts 56°
2026-05-08 11:36 25.55028 103.63771 22525 ft 496 kts 55°
2026-05-08 11:37 25.56910 103.67010 23097 ft 501 kts 54°
2026-05-08 11:37 25.58169 103.69157 23429 ft 504 kts 54°
2026-05-08 11:37 25.60086 103.72425 23897 ft 509 kts 54°
2026-05-08 11:37 25.62028 103.75742 24225 ft 516 kts 54°
2026-05-08 11:38 25.63989 103.79108 24570 ft 523 kts 54°
2026-05-08 11:38 25.65959 103.82505 25040 ft 525 kts 54°
2026-05-08 11:38 25.67934 103.85918 25498 ft 527 kts 54°
2026-05-08 11:38 25.69908 103.89334 26085 ft 526 kts 54°
2026-05-08 11:39 25.71887 103.92760 26557 ft 528 kts 54°
2026-05-08 11:39 25.73877 103.96204 26912 ft 533 kts 54°
2026-05-08 11:39 25.76569 104.00866 27387 ft 539 kts 54°
2026-05-08 11:39 25.77912 104.03192 27641 ft 542 kts 54°
2026-05-08 11:40 25.79950 104.06727 28037 ft 545 kts 54°
2026-05-08 11:40 25.82013 104.10267 28419 ft 547 kts 53°
2026-05-08 11:40 25.84099 104.13807 28792 ft 550 kts 53°
2026-05-08 11:40 25.86204 104.17367 29120 ft 553 kts 53°
2026-05-08 11:41 25.88327 104.20960 29360 ft 559 kts 53°
2026-05-08 11:41 25.90459 104.24581 29623 ft 562 kts 53°
2026-05-08 11:41 25.92600 104.28232 29985 ft 564 kts 53°
2026-05-08 11:41 25.94708 104.31834 30378 ft 563 kts 53°
2026-05-08 11:42 25.96838 104.35474 30786 ft 562 kts 53°
2026-05-08 11:42 25.98971 104.39119 31197 ft 561 kts 53°
2026-05-08 11:42 26.01200 104.42659 31604 ft 557 kts 48°
2026-05-08 11:42 26.03681 104.45946 31982 ft 553 kts 43°
2026-05-08 11:43 26.06360 104.49000 32396 ft 549 kts 37°
2026-05-08 11:43 26.09237 104.51754 32778 ft 545 kts 34°
2026-05-08 11:43 26.12158 104.54424 33206 ft 543 kts 33°
2026-05-08 11:43 26.15084 104.57082 33652 ft 542 kts 33°
2026-05-08 11:44 26.18005 104.59745 33996 ft 543 kts 33°
2026-05-08 11:44 26.20921 104.62426 34379 ft 542 kts 33°
2026-05-08 11:44 26.23801 104.65094 34870 ft 536 kts 33°
2026-05-08 11:44 26.26668 104.67760 35165 ft 537 kts 34°
2026-05-08 11:45 26.29547 104.70443 35335 ft 540 kts 34°
2026-05-08 11:45 26.32425 104.73137 35652 ft 539 kts 34°
2026-05-08 11:45 26.35288 104.75818 36061 ft 536 kts 34°
2026-05-08 11:45 26.38106 104.78453 36443 ft 534 kts 34°
2026-05-08 11:46 26.40952 104.81113 36753 ft 535 kts 33°
2026-05-08 11:46 26.43811 104.83784 36959 ft 537 kts 33°
2026-05-08 11:46 26.46679 104.86465 37217 ft 538 kts 33°
2026-05-08 11:47 26.52439 104.91859 37268 ft 540 kts 33°
2026-05-08 11:47 26.58154 104.97228 37266 ft 533 kts 33°
2026-05-08 11:48 26.63433 105.03118 37270 ft 543 kts 47°
2026-05-08 11:48 26.67455 105.10322 37288 ft 553 kts 61°
2026-05-08 11:49 26.70574 105.18212 37290 ft 556 kts 63°
2026-05-08 11:49 26.73651 105.26163 37276 ft 558 kts 63°
2026-05-08 11:50 26.76804 105.34123 37280 ft 559 kts 62°
2026-05-08 11:50 26.79994 105.42065 37287 ft 559 kts 62°
2026-05-08 11:51 26.83180 105.50011 37278 ft 559 kts 62°
2026-05-08 11:51 26.86354 105.57961 37277 ft 559 kts 62°
2026-05-08 11:52 26.89516 105.65907 37330 ft 558 kts 62°
2026-05-08 11:52 26.92679 105.73867 37305 ft 559 kts 62°
2026-05-08 11:53 26.95818 105.81782 37308 ft 560 kts 62°
2026-05-08 11:53 26.98979 105.89768 37300 ft 560 kts 62°
2026-05-08 11:54 27.02133 105.97754 37304 ft 561 kts 62°
2026-05-08 11:54 27.05368 106.05708 37307 ft 558 kts 59°
2026-05-08 11:55 27.08906 106.13451 37310 ft 557 kts 58°
2026-05-08 11:55 27.12485 106.21171 37344 ft 557 kts 58°
2026-05-08 11:56 27.16021 106.28930 37317 ft 559 kts 58°
2026-05-08 11:56 27.19542 106.36709 37349 ft 559 kts 58°
2026-05-08 11:57 27.23078 106.44492 37328 ft 560 kts 58°
2026-05-08 11:57 27.26611 106.52260 37331 ft 561 kts 58°
2026-05-08 11:58 27.30154 106.60073 37313 ft 561 kts 58°
2026-05-08 11:58 27.33831 106.67758 37316 ft 550 kts 47°
2026-05-08 11:59 27.39494 106.72996 37358 ft 515 kts 16°
2026-05-08 11:59 27.42797 106.74437 37331 ft 506 kts
2026-05-08 11:59 27.46207 106.75213 37338 ft 492 kts 353°
2026-05-08 11:59 27.49583 106.75230 37352 ft 484 kts 349°
2026-05-08 12:00 27.56370 106.75092 37345 ft 490 kts 349°
2026-05-08 12:00 27.63183 106.75038 37359 ft 486 kts 350°
2026-05-08 12:01 27.69901 106.75047 37344 ft 481 kts 349°
2026-05-08 12:01 27.76551 106.75058 37350 ft 481 kts 350°
2026-05-08 12:02 27.83249 106.75064 37339 ft 481 kts 349°
2026-05-08 12:02 27.89963 106.75070 37345 ft 481 kts 350°
2026-05-08 12:03 27.96678 106.75076 37342 ft 484 kts 349°
2026-05-08 12:03 28.03421 106.75084 37336 ft 485 kts 349°
2026-05-08 12:04 28.10169 106.75094 37335 ft 485 kts 349°
2026-05-08 12:04 28.16908 106.75098 37344 ft 485 kts 349°
2026-05-08 12:05 28.23606 106.75106 37345 ft 484 kts 349°
2026-05-08 12:05 28.30356 106.75098 37341 ft 485 kts 349°
2026-05-08 12:06 28.37110 106.75101 37326 ft 485 kts 349°
2026-05-08 12:06 28.43858 106.75111 37326 ft 485 kts 349°
2026-05-08 12:07 28.50599 106.75118 37346 ft 484 kts 349°
2026-05-08 12:07 28.57335 106.75121 37315 ft 484 kts 349°
2026-05-08 12:08 28.64063 106.75128 37320 ft 483 kts 349°
2026-05-08 12:08 28.70786 106.75136 37315 ft 482 kts 349°
2026-05-08 12:09 28.77500 106.75142 37338 ft 482 kts 348°
2026-05-08 12:09 28.84182 106.75146 37317 ft 483 kts 348°
2026-05-08 12:10 28.90896 106.75153 37282 ft 483 kts 349°
2026-05-08 12:10 28.97622 106.75155 37305 ft 483 kts 348°
2026-05-08 12:11 29.04366 106.75164 37297 ft 484 kts 348°
2026-05-08 12:11 29.11112 106.75169 37300 ft 485 kts 348°
2026-05-08 12:12 29.17880 106.75176 37297 ft 486 kts 348°
2026-05-08 12:12 29.24596 106.75183 37292 ft 485 kts 348°
2026-05-08 12:13 29.31354 106.75190 37294 ft 485 kts 348°
2026-05-08 12:13 29.38114 106.75195 37306 ft 485 kts 348°
2026-05-08 12:14 29.44861 106.75202 37297 ft 484 kts 348°
2026-05-08 12:14 29.51594 106.75203 37295 ft 483 kts 348°
2026-05-08 12:15 29.58328 106.75198 37285 ft 483 kts 348°
2026-05-08 12:15 29.65059 106.75201 37290 ft 484 kts 348°
2026-05-08 12:16 29.71795 106.75201 37288 ft 483 kts 348°
2026-05-08 12:16 29.78490 106.75200 37291 ft 484 kts 348°
2026-05-08 12:17 29.85224 106.75199 37281 ft 484 kts 348°
2026-05-08 12:17 29.91951 106.75201 37297 ft 483 kts 348°
2026-05-08 12:18 29.98758 106.76037 37298 ft 502 kts
2026-05-08 12:18 30.05558 106.78409 37300 ft 518 kts 10°
2026-05-08 12:19 30.12227 106.81408 37304 ft 517 kts 10°
2026-05-08 12:19 30.18922 106.84515 37300 ft 525 kts 15°
2026-05-08 12:20 30.25302 106.88913 37300 ft 542 kts 26°
2026-05-08 12:20 30.31398 106.94082 37303 ft 542 kts 26°
2026-05-08 12:21 30.37535 106.99117 37303 ft 540 kts 25°
2026-05-08 12:21 30.43711 107.04066 37297 ft 540 kts 25°
2026-05-08 12:22 30.49883 107.09018 37298 ft 539 kts 25°
2026-05-08 12:22 30.56042 107.13986 37296 ft 538 kts 25°
2026-05-08 12:23 30.62141 107.18921 37297 ft 538 kts 25°
2026-05-08 12:23 30.68268 107.23884 37303 ft 538 kts 25°
2026-05-08 12:24 30.74408 107.28865 37297 ft 537 kts 25°
2026-05-08 12:24 30.80545 107.33851 37294 ft 537 kts 25°
2026-05-08 12:25 30.86671 107.38816 37300 ft 536 kts 24°
2026-05-08 12:25 30.92995 107.43360 37287 ft 532 kts 21°
2026-05-08 12:26 30.98278 107.47005 37306 ft 531 kts 21°
2026-05-08 12:26 31.04616 107.51459 37290 ft 532 kts 21°
2026-05-08 12:27 31.10941 107.55927 37288 ft 531 kts 21°
2026-05-08 12:27 31.18294 107.61108 37297 ft 531 kts 21°
2026-05-08 12:28 31.23561 107.64825 37283 ft 531 kts 21°
2026-05-08 12:28 31.29873 107.69296 37299 ft 530 kts 21°
2026-05-08 12:29 31.36184 107.73763 37289 ft 530 kts 21°
2026-05-08 12:29 31.42490 107.78239 37293 ft 530 kts 22°
2026-05-08 12:30 31.48796 107.82720 37291 ft 530 kts 22°
2026-05-08 12:30 31.55098 107.87210 37298 ft 530 kts 22°
2026-05-08 12:31 31.61400 107.91705 37336 ft 530 kts 22°
2026-05-08 12:31 31.67684 107.96196 37294 ft 529 kts 22°
2026-05-08 12:32 31.73970 108.00692 37292 ft 528 kts 22°
2026-05-08 12:32 31.80235 108.05182 37291 ft 527 kts 22°
2026-05-08 12:33 31.86480 108.09666 37331 ft 526 kts 22°
2026-05-08 12:33 31.92725 108.14154 37300 ft 525 kts 23°
2026-05-08 12:34 31.98914 108.18615 37314 ft 524 kts 23°
2026-05-08 12:34 32.05120 108.23130 37295 ft 525 kts 27°
2026-05-08 12:35 32.07943 108.25961 37312 ft 541 kts 40°
2026-05-08 12:35 32.10290 108.29480 37295 ft 552 kts 52°
2026-05-08 12:35 32.12042 108.33532 37286 ft 558 kts 66°
2026-05-08 12:35 32.13278 108.37884 37304 ft 559 kts 69°
2026-05-08 12:36 32.15592 108.46651 37294 ft 558 kts 69°
2026-05-08 12:36 32.18048 108.55339 37300 ft 558 kts 68°
2026-05-08 12:37 32.20637 108.63971 37293 ft 554 kts 62°
2026-05-08 12:37 32.22516 108.67885 37301 ft 543 kts 48°
2026-05-08 12:37 32.24880 108.71256 37210 ft 536 kts 38°
2026-05-08 12:38 32.27634 108.74143 37315 ft 524 kts 27°
2026-05-08 12:38 32.30653 108.76343 37307 ft 502 kts 22°
2026-05-08 12:38 32.36739 108.80512 37290 ft 511 kts 22°
2026-05-08 12:39 32.42925 108.84850 37299 ft 521 kts 23°
2026-05-08 12:39 32.49131 108.89317 37303 ft 521 kts 23°
2026-05-08 12:40 32.55327 108.93794 37276 ft 521 kts 23°
2026-05-08 12:40 32.61486 108.98238 37275 ft 521 kts 23°
2026-05-08 12:41 32.67680 109.02710 37269 ft 521 kts 23°
2026-05-08 12:41 32.73875 109.07192 37292 ft 520 kts 24°
2026-05-08 12:42 32.80050 109.11666 37267 ft 519 kts 24°
2026-05-08 12:42 32.86207 109.16136 37268 ft 518 kts 24°
2026-05-08 12:43 32.92350 109.20602 37276 ft 517 kts 24°
2026-05-08 12:43 32.98484 109.25066 37278 ft 517 kts 24°
2026-05-08 12:44 33.04575 109.29518 37293 ft 516 kts 24°
2026-05-08 12:44 33.10695 109.33997 37286 ft 516 kts 24°
2026-05-08 12:45 33.16811 109.38480 37284 ft 516 kts 24°
2026-05-08 12:45 33.22927 109.42977 37285 ft 516 kts 25°
2026-05-08 12:46 33.29031 109.47473 37269 ft 515 kts 25°
2026-05-08 12:46 33.35120 109.51960 37276 ft 514 kts 24°
2026-05-08 12:47 33.38052 109.54423 37266 ft 522 kts 37°
2026-05-08 12:47 33.40406 109.57787 37286 ft 535 kts 54°
2026-05-08 12:47 33.41991 109.61844 37256 ft 543 kts 71°
2026-05-08 12:47 33.42627 109.66293 37310 ft 543 kts 83°
2026-05-08 12:48 33.43335 109.75305 37293 ft 544 kts 83°
2026-05-08 12:48 33.44112 109.84329 37294 ft 545 kts 82°
2026-05-08 12:49 33.44977 109.93359 37263 ft 546 kts 82°
2026-05-08 12:49 33.45859 110.02400 37277 ft 547 kts 82°
2026-05-08 12:50 33.46724 110.11452 37260 ft 547 kts 82°
2026-05-08 12:50 33.47574 110.20452 37282 ft 548 kts 82°
2026-05-08 12:51 33.48838 110.33956 37263 ft 549 kts 82°
2026-05-08 12:52 33.49899 110.42999 37251 ft 544 kts 70°
2026-05-08 12:52 33.53682 110.50550 37265 ft 523 kts 39°
2026-05-08 12:52 33.56417 110.53358 37280 ft 512 kts 27°
2026-05-08 12:53 33.59490 110.55327 37275 ft 497 kts 17°
2026-05-08 12:53 33.62656 110.57025 37280 ft 499 kts 17°
2026-05-08 12:53 33.68999 110.60514 37275 ft 502 kts 18°
2026-05-08 12:54 33.75303 110.64089 37284 ft 506 kts 19°
2026-05-08 12:54 33.81646 110.67740 37268 ft 506 kts 19°
2026-05-08 12:55 33.87992 110.71403 37257 ft 505 kts 19°
2026-05-08 12:55 33.94322 110.75053 37260 ft 503 kts 19°
2026-05-08 12:56 34.00627 110.78691 37262 ft 502 kts 19°
2026-05-08 12:56 34.06915 110.82323 37255 ft 500 kts 19°
2026-05-08 12:57 34.13188 110.85954 37241 ft 499 kts 19°
2026-05-08 12:57 34.19440 110.89579 37271 ft 499 kts 19°
2026-05-08 12:58 34.25661 110.93193 37249 ft 499 kts 19°
2026-05-08 12:58 34.31917 110.96833 37233 ft 499 kts 19°
2026-05-08 12:59 34.38170 111.00490 37228 ft 500 kts 21°
2026-05-08 12:59 34.41145 111.02738 37237 ft 510 kts 32°
2026-05-08 12:59 34.43821 111.05628 37240 ft 518 kts 41°
2026-05-08 13:00 34.46125 111.09016 37213 ft 526 kts 52°
2026-05-08 13:00 34.48070 111.12784 37232 ft 528 kts 54°
2026-05-08 13:00 34.51811 111.20458 37236 ft 529 kts 55°
2026-05-08 13:01 34.55578 111.28117 37221 ft 529 kts 54°
2026-05-08 13:01 34.59410 111.35744 37226 ft 529 kts 54°
2026-05-08 13:02 34.63254 111.43360 37220 ft 529 kts 54°
2026-05-08 13:02 34.67065 111.50933 37216 ft 528 kts 54°
2026-05-08 13:03 34.70913 111.58609 37218 ft 528 kts 54°
2026-05-08 13:03 34.74727 111.66236 37217 ft 528 kts 54°
2026-05-08 13:04 34.78514 111.73825 37224 ft 528 kts 54°
2026-05-08 13:04 34.82322 111.81473 37229 ft 529 kts 54°
2026-05-08 13:05 34.86136 111.89148 37224 ft 529 kts 54°
2026-05-08 13:05 34.89955 111.96808 37218 ft 529 kts 54°
2026-05-08 13:06 34.93810 112.04461 37237 ft 529 kts 54°
2026-05-08 13:06 34.97662 112.12115 37230 ft 529 kts 54°
2026-05-08 13:07 35.01504 112.19784 37220 ft 530 kts 54°
2026-05-08 13:07 35.05341 112.27471 37227 ft 530 kts 54°
2026-05-08 13:08 35.09169 112.35156 37221 ft 531 kts 54°
2026-05-08 13:08 35.12982 112.42824 37242 ft 531 kts 54°
2026-05-08 13:09 35.16813 112.50550 37219 ft 532 kts 54°
2026-05-08 13:09 35.20643 112.58287 37227 ft 531 kts 54°
2026-05-08 13:10 35.24494 112.65980 37234 ft 530 kts 53°
2026-05-08 13:10 35.28368 112.73668 37242 ft 531 kts 53°
2026-05-08 13:11 35.32244 112.81392 37243 ft 532 kts 53°
2026-05-08 13:11 35.36109 112.89129 37234 ft 533 kts 53°
2026-05-08 13:12 35.39967 112.96874 37241 ft 533 kts 53°
2026-05-08 13:12 35.43793 113.04571 37287 ft 532 kts 53°
2026-05-08 13:13 35.47660 113.12362 37255 ft 533 kts 53°
2026-05-08 13:13 35.51511 113.20142 37254 ft 534 kts 53°
2026-05-08 13:14 35.55360 113.27938 37249 ft 534 kts 53°
2026-05-08 13:14 35.59199 113.35731 37256 ft 533 kts 53°
2026-05-08 13:15 35.63058 113.43527 37263 ft 534 kts 53°
2026-05-08 13:15 35.66988 113.51282 37253 ft 535 kts 52°
2026-05-08 13:16 35.70940 113.59060 37239 ft 535 kts 52°
2026-05-08 13:16 35.74860 113.66822 37228 ft 535 kts 52°
2026-05-08 13:17 35.78121 113.73309 37239 ft 537 kts 52°
2026-05-08 13:17 35.82052 113.81148 37205 ft 538 kts 52°
2026-05-08 13:18 35.86624 113.90282 37182 ft 539 kts 52°
2026-05-08 13:18 35.90561 113.98171 37187 ft 539 kts 53°
2026-05-08 13:19 35.94486 114.06052 37173 ft 540 kts 52°
2026-05-08 13:19 35.98414 114.13959 37161 ft 540 kts 52°
2026-05-08 13:20 36.01672 114.20529 37172 ft 540 kts 52°
2026-05-08 13:20 36.05596 114.28457 37161 ft 540 kts 53°
2026-05-08 13:21 36.09509 114.36385 37185 ft 540 kts 52°
2026-05-08 13:21 36.14047 114.45600 37158 ft 540 kts 52°
2026-05-08 13:22 36.17323 114.52271 37161 ft 540 kts 52°
2026-05-08 13:22 36.21220 114.60221 37163 ft 540 kts 52°
2026-05-08 13:23 36.25161 114.68043 37143 ft 531 kts 44°
2026-05-08 13:23 36.27776 114.71223 37162 ft 510 kts 26°
2026-05-08 13:23 36.30750 114.73345 37168 ft 495 kts 14°
2026-05-08 13:24 36.33970 114.74711 37156 ft 483 kts
2026-05-08 13:24 36.37244 114.75219 37151 ft 469 kts 355°
2026-05-08 13:24 36.40513 114.75988 37148 ft 493 kts
2026-05-08 13:24 36.43689 114.77807 37164 ft 511 kts 20°
2026-05-08 13:25 36.49949 114.82089 37150 ft 509 kts 18°
2026-05-08 13:25 36.56214 114.85957 37129 ft 498 kts 16°
2026-05-08 13:26 36.62480 114.89586 37131 ft 497 kts 15°
2026-05-08 13:26 36.68755 114.93189 37127 ft 497 kts 15°
2026-05-08 13:27 36.75039 114.96831 37125 ft 498 kts 15°
2026-05-08 13:27 36.81318 115.00495 37118 ft 498 kts 15°
2026-05-08 13:28 36.87607 115.04177 37118 ft 499 kts 15°
2026-05-08 13:28 36.93898 115.07865 37107 ft 499 kts 15°
2026-05-08 13:29 37.00177 115.11553 37094 ft 499 kts 15°
2026-05-08 13:29 37.06458 115.15248 37133 ft 498 kts 15°
2026-05-08 13:30 37.12727 115.18942 37099 ft 497 kts 15°
2026-05-08 13:30 37.18925 115.22602 37082 ft 495 kts 15°
2026-05-08 13:31 37.25147 115.26282 37106 ft 494 kts 15°
2026-05-08 13:31 37.31351 115.29957 37082 ft 493 kts 15°
2026-05-08 13:32 37.37548 115.33636 37093 ft 492 kts 15°
2026-05-08 13:32 37.43726 115.37309 37097 ft 491 kts 15°
2026-05-08 13:33 37.49913 115.40994 37078 ft 491 kts 15°
2026-05-08 13:33 37.56080 115.44675 37072 ft 491 kts 15°
2026-05-08 13:34 37.62264 115.48374 37095 ft 491 kts 16°
2026-05-08 13:34 37.68436 115.52072 37074 ft 491 kts 16°
2026-05-08 13:35 37.74612 115.55777 37070 ft 491 kts 15°
2026-05-08 13:35 37.77766 115.57325 37065 ft 479 kts
2026-05-08 13:35 37.80983 115.58231 36994 ft 471 kts 360°
2026-05-08 13:36 37.84255 115.58651 36105 ft 472 kts 352°
2026-05-08 13:36 37.87494 115.58490 35372 ft 463 kts 347°
2026-05-08 13:36 37.90665 115.58198 34539 ft 463 kts 347°
2026-05-08 13:36 37.93881 115.57899 33616 ft 464 kts 347°
2026-05-08 13:37 37.97107 115.57620 32617 ft 466 kts 348°
2026-05-08 13:37 38.00352 115.57365 31641 ft 466 kts 349°
2026-05-08 13:37 38.03598 115.57123 30739 ft 467 kts 351°
2026-05-08 13:37 38.06823 115.56887 30051 ft 462 kts 351°
2026-05-08 13:38 38.10017 115.56677 29264 ft 459 kts 353°
2026-05-08 13:38 38.13195 115.56558 28553 ft 453 kts 353°
2026-05-08 13:38 38.16323 115.56367 27887 ft 447 kts 352°
2026-05-08 13:38 38.19406 115.56139 27230 ft 442 kts 352°
2026-05-08 13:39 38.22466 115.55927 26572 ft 438 kts 354°
2026-05-08 13:39 38.25514 115.56145 25919 ft 440 kts
2026-05-08 13:39 38.28504 115.56969 25314 ft 440 kts 12°
2026-05-08 13:39 38.31385 115.58270 24691 ft 440 kts 21°
2026-05-08 13:40 38.34124 115.59991 24096 ft 438 kts 23°
2026-05-08 13:40 38.36833 115.61753 23464 ft 435 kts 24°
2026-05-08 13:40 38.39528 115.63498 22760 ft 432 kts 24°
2026-05-08 13:40 38.42203 115.65208 22144 ft 427 kts 23°
2026-05-08 13:41 38.44847 115.66880 21540 ft 422 kts 23°
2026-05-08 13:41 38.47433 115.68509 20952 ft 417 kts 23°
2026-05-08 13:41 38.50015 115.70136 20373 ft 412 kts 23°
2026-05-08 13:41 38.52569 115.71750 19808 ft 408 kts 23°
2026-05-08 13:42 38.55104 115.73356 19232 ft 404 kts 23°
2026-05-08 13:42 38.57602 115.74940 18677 ft 400 kts 23°
2026-05-08 13:42 38.60085 115.76515 18095 ft 396 kts 23°
2026-05-08 13:42 38.62549 115.78080 17476 ft 393 kts 23°
2026-05-08 13:43 38.64992 115.79632 16880 ft 390 kts 23°
2026-05-08 13:43 38.67313 115.81357 16590 ft 382 kts 33°
2026-05-08 13:43 38.69368 115.83505 16525 ft 384 kts 37°
2026-05-08 13:43 38.71416 115.85784 16444 ft 394 kts 37°
2026-05-08 13:44 38.73499 115.88109 16338 ft 397 kts 37°
2026-05-08 13:44 38.75582 115.90414 16251 ft 394 kts 37°
2026-05-08 13:44 38.77662 115.92693 16162 ft 393 kts 37°
2026-05-08 13:44 38.79741 115.94952 16063 ft 391 kts 37°
2026-05-08 13:45 38.81813 115.97195 15979 ft 390 kts 36°
2026-05-08 13:45 38.83884 115.99432 15892 ft 389 kts 36°
2026-05-08 13:45 38.85954 116.01667 15793 ft 388 kts 36°
2026-05-08 13:45 38.88024 116.03903 15690 ft 388 kts 36°
2026-05-08 13:46 38.90088 116.06136 15618 ft 388 kts 36°
2026-05-08 13:46 38.92152 116.08370 15526 ft 388 kts 36°
2026-05-08 13:46 38.94185 116.10574 15435 ft 388 kts 36°
2026-05-08 13:46 38.96279 116.12843 15337 ft 389 kts 36°
2026-05-08 13:47 38.98320 116.15059 15260 ft 389 kts 36°
2026-05-08 13:47 39.00387 116.17298 15165 ft 385 kts 35°
2026-05-08 13:47 39.02644 116.19015 15050 ft 375 kts 15°
2026-05-08 13:47 39.05179 116.19656 14983 ft 371 kts 359°
2026-05-08 13:48 39.07739 116.19449 14909 ft 369 kts 351°
2026-05-08 13:48 39.10308 116.19045 14827 ft 371 kts 350°
2026-05-08 13:48 39.12865 116.18622 14737 ft 372 kts 350°
2026-05-08 13:48 39.15444 116.18196 14645 ft 372 kts 351°
2026-05-08 13:49 39.18002 116.17784 14561 ft 372 kts 351°
2026-05-08 13:49 39.20579 116.17378 14472 ft 371 kts 351°
2026-05-08 13:49 39.23127 116.16984 14377 ft 370 kts 351°
2026-05-08 13:49 39.25684 116.16593 14286 ft 368 kts 351°
2026-05-08 13:50 39.28221 116.16207 14207 ft 367 kts 351°
2026-05-08 13:50 39.30757 116.15822 14117 ft 366 kts 351°
2026-05-08 13:50 39.33281 116.15439 14031 ft 365 kts 351°
2026-05-08 13:50 39.35805 116.15056 13955 ft 365 kts 351°
2026-05-08 13:51 39.38320 116.14674 13873 ft 364 kts 351°
2026-05-08 13:51 39.40843 116.14290 13774 ft 364 kts 351°
2026-05-08 13:51 39.43350 116.13908 13675 ft 363 kts 351°
2026-05-08 13:51 39.45834 116.13530 13595 ft 363 kts 351°
2026-05-08 13:52 39.48339 116.13149 13504 ft 362 kts 351°
2026-05-08 13:52 39.50838 116.12768 13423 ft 362 kts 351°
2026-05-08 13:52 39.53346 116.12385 13332 ft 362 kts 351°
2026-05-08 13:52 39.55851 116.12002 13247 ft 362 kts 351°
2026-05-08 13:53 39.58356 116.11619 13166 ft 362 kts 351°
2026-05-08 13:53 39.60856 116.11236 13077 ft 362 kts 351°
2026-05-08 13:53 39.63360 116.10852 12991 ft 362 kts 351°
2026-05-08 13:53 39.65861 116.10468 12903 ft 362 kts 351°
2026-05-08 13:54 39.68367 116.10083 12820 ft 362 kts 351°
2026-05-08 13:54 39.70868 116.09699 12736 ft 362 kts 351°
2026-05-08 13:54 39.73366 116.09315 12653 ft 362 kts 351°
2026-05-08 13:54 39.75871 116.08929 12561 ft 362 kts 351°
2026-05-08 13:55 39.78379 116.08543 12494 ft 362 kts 350°
2026-05-08 13:55 39.80883 116.08157 12406 ft 363 kts 350°
2026-05-08 13:55 39.85891 116.07384 12223 ft 362 kts 350°
2026-05-08 13:56 39.88366 116.07002 12151 ft 362 kts 350°
2026-05-08 13:56 39.90903 116.06610 12058 ft 362 kts 350°
2026-05-08 13:56 39.93370 116.06228 11991 ft 362 kts 350°
2026-05-08 13:56 39.95872 116.05840 11893 ft 361 kts 350°
2026-05-08 13:57 39.98367 116.05454 11799 ft 361 kts 350°
2026-05-08 13:57 40.00862 116.05067 11738 ft 361 kts 350°
2026-05-08 13:57 40.03355 116.04679 11643 ft 361 kts 350°
2026-05-08 13:57 40.05845 116.04292 11552 ft 360 kts 350°
2026-05-08 13:58 40.08331 116.03905 11480 ft 360 kts 350°
2026-05-08 13:58 40.10821 116.03517 11395 ft 360 kts 350°
2026-05-08 13:58 40.13312 116.03129 11315 ft 360 kts 350°
2026-05-08 13:58 40.15801 116.02734 11213 ft 356 kts 348°
2026-05-08 13:59 40.18114 116.01775 11127 ft 349 kts 328°
2026-05-08 13:59 40.19990 115.99782 11072 ft 349 kts 309°
2026-05-08 13:59 40.21317 115.97123 11010 ft 350 kts 296°
2026-05-08 13:59 40.22082 115.94119 10934 ft 351 kts 279°
2026-05-08 14:00 40.22233 115.90929 10858 ft 351 kts 272°
2026-05-08 14:00 40.22328 115.87740 10792 ft 350 kts 274°
2026-05-08 14:00 40.22459 115.84569 10717 ft 348 kts 275°
2026-05-08 14:00 40.22615 115.81426 10614 ft 342 kts 277°
2026-05-08 14:01 40.23253 115.78441 10527 ft 344 kts 297°
2026-05-08 14:01 40.24683 115.75931 10479 ft 345 kts 315°
2026-05-08 14:01 40.26590 115.74193 10382 ft 335 kts 331°
2026-05-08 14:01 40.28738 115.73169 10259 ft 325 kts 345°
2026-05-08 14:02 40.30959 115.73019 10171 ft 316 kts
2026-05-08 14:02 40.33115 115.73266 10095 ft 304 kts
2026-05-08 14:02 40.35180 115.73471 10021 ft 292 kts 360°
2026-05-08 14:02 40.37169 115.73649 9953 ft 280 kts 359°
2026-05-08 14:03 40.39066 115.73962 9880 ft 278 kts 13°
2026-05-08 14:03 40.40761 115.75280 9843 ft 293 kts 40°
2026-05-08 14:03 40.41878 115.77533 9780 ft 301 kts 68°
2026-05-08 14:03 40.42155 115.80253 9723 ft 301 kts 90°
2026-05-08 14:04 40.42025 115.82996 9665 ft 302 kts 92°
2026-05-08 14:04 40.41872 115.85746 9585 ft 303 kts 92°
2026-05-08 14:04 40.41717 115.88510 9512 ft 304 kts 92°
2026-05-08 14:04 40.41567 115.91275 9454 ft 304 kts 93°
2026-05-08 14:05 40.41421 115.94043 9372 ft 304 kts 92°
2026-05-08 14:05 40.41279 115.96805 9299 ft 303 kts 93°
2026-05-08 14:05 40.41139 115.99559 9219 ft 302 kts 93°
2026-05-08 14:05 40.41048 116.01376 9158 ft 301 kts 93°
2026-05-08 14:06 40.40866 116.05025 9079 ft 298 kts 93°
2026-05-08 14:06 40.40777 116.06820 9022 ft 297 kts 94°
2026-05-08 14:06 40.40641 116.09514 8970 ft 295 kts 93°
2026-05-08 14:06 40.40462 116.13091 8883 ft 293 kts 93°
2026-05-08 14:07 40.40373 116.14863 8813 ft 293 kts 93°
2026-05-08 14:07 40.40296 116.17548 8608 ft 296 kts 89°
2026-05-08 14:07 40.40322 116.20261 8353 ft 298 kts 89°
2026-05-08 14:07 40.40381 116.23838 7987 ft 294 kts 89°
2026-05-08 14:08 40.40408 116.25641 7810 ft 291 kts 89°
2026-05-08 14:08 40.40443 116.28271 7564 ft 287 kts 90°
2026-05-08 14:08 40.40472 116.30874 7312 ft 283 kts 91°
2026-05-08 14:08 40.40499 116.33442 7058 ft 279 kts 91°
2026-05-08 14:09 40.40521 116.35968 6823 ft 276 kts 91°
2026-05-08 14:09 40.40540 116.38439 6582 ft 273 kts 92°
2026-05-08 14:09 40.40559 116.40917 6325 ft 270 kts 92°
2026-05-08 14:09 40.40577 116.43369 6071 ft 267 kts 92°
2026-05-08 14:10 40.40598 116.45780 5842 ft 261 kts 93°
2026-05-08 14:10 40.40617 116.48100 5740 ft 251 kts 92°
2026-05-08 14:10 40.40634 116.50391 5476 ft 248 kts 93°
2026-05-08 14:10 40.40646 116.52650 5195 ft 244 kts 96°
2026-05-08 14:11 40.40240 116.54698 4945 ft 226 kts 128°
2026-05-08 14:11 40.39129 116.56063 4687 ft 217 kts 154°
2026-05-08 14:11 40.37749 116.56776 4364 ft 210 kts 172°
2026-05-08 14:11 40.36319 116.57041 4126 ft 207 kts 176°
2026-05-08 14:12 40.34879 116.57251 3855 ft 208 kts 176°
2026-05-08 14:12 40.33482 116.57447 3716 ft 201 kts 176°
2026-05-08 14:12 40.32106 116.57651 3601 ft 199 kts 176°
2026-05-08 14:12 40.30718 116.57860 3526 ft 199 kts 176°
2026-05-08 14:13 40.29372 116.58068 3404 ft 191 kts 176°
2026-05-08 14:13 40.28089 116.58269 3277 ft 180 kts 176°
2026-05-08 14:13 40.26880 116.58460 3190 ft 173 kts 176°
2026-05-08 14:13 40.25679 116.58647 3123 ft 174 kts 176°
2026-05-08 14:14 40.24482 116.58839 3112 ft 171 kts 177°
2026-05-08 14:14 40.23343 116.59028 3038 ft 160 kts 178°
2026-05-08 14:14 40.22247 116.59202 2828 ft 160 kts 177°
2026-05-08 14:14 40.21141 116.59376 2605 ft 159 kts 177°
2026-05-08 14:15 40.20042 116.59549 2392 ft 158 kts 178°
2026-05-08 14:15 40.18966 116.59719 2172 ft 153 kts 178°
2026-05-08 14:15 40.17928 116.59882 1958 ft 147 kts 178°
2026-05-08 14:15 40.16923 116.60039 1759 ft 144 kts 178°
2026-05-08 14:16 40.15930 116.60194 1562 ft 148 kts 178°
2026-05-08 14:16 40.14909 116.60354 1357 ft 146 kts 175°
2026-05-08 14:16 40.13935 116.60508 1135 ft 135 kts 175°
2026-05-08 14:16 40.13015 116.60654 959 ft 133 kts 175°
2026-05-08 14:17 40.12075 116.60797 754 ft 138 kts 173°
2026-05-08 14:17 40.11127 116.60949 556 ft 136 kts 173°
2026-05-08 14:17 40.10160 116.61099 354 ft 142 kts 173°
2026-05-08 14:17 40.09166 116.61254 160 ft 144 kts 173°
2026-05-08 14:18 40.08247 116.61400 126 ft 116 kts 173°
2026-05-08 14:18 40.07601 116.61501 126 ft 71 kts 173°
2026-05-08 14:18 40.07261 116.61553 124 ft 32 kts 173°
2026-05-08 14:18 40.07045 116.61582 124 ft 30 kts 179°
2026-05-08 14:19 40.06842 116.61534 125 ft 30 kts 205°
2026-05-08 14:19 40.06735 116.61471 126 ft 12 kts 203°
2026-05-08 14:19 40.06659 116.61431 126 ft 12 kts 196°
2026-05-08 14:19 40.06577 116.61423 126 ft 12 kts 176°
2026-05-08 14:20 40.06495 116.61435 125 ft 12 kts 173°
2026-05-08 14:20 40.06413 116.61447 126 ft 12 kts 180°
2026-05-08 14:20 40.06372 116.61368 125 ft 12 kts 262°
2026-05-08 14:20 40.06361 116.61258 125 ft 12 kts 264°
2026-05-08 14:21 40.06351 116.61147 125 ft 12 kts 263°
2026-05-08 14:21 40.06303 116.61077 124 ft 12 kts 180°
2026-05-08 14:21 40.06217 116.61089 126 ft 12 kts 173°
2026-05-08 14:21 40.06131 116.61102 126 ft 12 kts 173°
2026-05-08 14:22 40.06046 116.61115 126 ft 12 kts 173°
2026-05-08 14:22 40.05960 116.61128 126 ft 12 kts 173°
2026-05-08 14:22 40.05875 116.61142 126 ft 12 kts 173°
2026-05-08 14:22 40.05797 116.61154 124 ft 9 kts 173°
2026-05-08 14:23 40.05786 116.61156 126 ft 0 kts 173°
2026-05-08 14:23 40.05776 116.61158 125 ft 2 kts 173°
2026-05-08 14:24 40.05758 116.61161 125 ft 3 kts 173°
2026-05-08 14:24 40.05735 116.61157 124 ft 4 kts 206°
2026-05-08 14:24 40.05723 116.61125 125 ft 4 kts 254°
2026-05-08 14:24 40.05721 116.61112 124 ft 1 kts 261°
2026-05-08 14:25 40.05720 116.61101 124 ft 2 kts 261°
2026-05-08 14:25 40.05718 116.61082 127 ft 3 kts 262°
2026-05-08 14:25 40.05716 116.61055 124 ft 1 kts 263°
2026-05-08 14:25 40.05715 116.61052 124 ft 0 kts 263°
2026-05-08 14:26 40.05715 116.61050 124 ft 0 kts 263°
2026-05-08 14:26 40.05715 116.61043 125 ft 1 kts 263°
2026-05-08 14:27 40.05714 116.61041 125 ft 0 kts 263°